Home > Weather > Curitiba > Past weeks

Flag for Brazil Weather for the Past 2 Weeks in Curitiba, Paraná, Brazil

Now
70 °F

Partly sunny.


Feels Like: 70 °F
Forecast: N/A
Wind: 7 mph from East

Location: Curitiba Aeroporto

Current Time: Feb 12, 2016 at 7:50:54 PM

Latest Report: Feb 12, 2016 at 7:00 PM


Visibility: N/A

Pressure: 30.01 "Hg (26.98 "Hg at 915m altitude)

Humidity: 83%

Dew point: 64 °F

Location of CuritibaLocation

Historic Weather in Curitiba — Graph

°F

Curitiba Temperature Yesterday

Maximum temperature yesterday: 75 °F (at 2:00 PM)
Minimum temperature yesterday: 64 °F (at 9:00 PM)
Average temperature yesterday: 68 °F

High & Low Weather Summary for the Past Weeks

 TemperatureHumidityPressure
High86 °F (Feb 5, 4:00 PM)100% (Jan 30, 4:00 AM)30.21 "Hg (Jan 30, 4:00 AM)
Low32 °F (Feb 2, 3:00 PM)35% (Feb 5, 5:00 PM)29.98 "Hg (Jan 29, 7:00 PM)
Average72 °F82%30.09 "Hg
* Reported Jan 28 6:00 PM — Feb 12 6:00 PM, Curitiba, Weather by CustomWeather, © 2016

Note: Actual official high and low records may vary slightly from our data, if they occured in-between our weather recording intervals... More about our weather records

Advertising

Curitiba Weather History for the Previous 24 Hours

 ConditionsComfort  
Time TempWeatherWind HumidityBarometerVisibility
6:00 PM
Fri, Feb 12
73 °FPartly sunny.8 mph74%30.01 "HgN/A
5:00 PM73 °FPartly sunny.8 mph69%30.04 "HgN/A
4:00 PM75 °FPartly sunny.7 mph65%30.04 "HgN/A
3:00 PM75 °FPartly sunny.8 mph65%30.07 "HgN/A
2:00 PM73 °FPartly sunny.8 mph65%30.07 "HgN/A
1:00 PM72 °FPartly sunny.8 mph69%30.09 "HgN/A
12:00 PM72 °FPartly sunny.8 mph69%30.09 "HgN/A
11:00 AM70 °FPartly sunny.9 mph69%30.12 "HgN/A
10:00 AM70 °FBroken clouds.8 mph73%30.09 "HgN/A
9:00 AM66 °FPartly sunny.5 mph88%30.09 "HgN/A
8:00 AM64 °FPartly sunny.5 mph88%30.09 "HgN/A
7:00 AM63 °FPartly sunny.2 mph94%30.07 "HgN/A
6:00 AM63 °FPassing clouds.2 mph94%30.07 "HgN/A
5:00 AM63 °FPassing clouds.2 mph94%30.04 "HgN/A
4:00 AM64 °FPassing clouds.2 mph88%30.07 "HgN/A
3:00 AM63 °FPartly cloudy.No wind88%30.07 "HgN/A
2:00 AM63 °FPassing clouds.3 mph88%30.09 "HgN/A
1:00 AM63 °FPassing clouds.2 mph88%30.12 "HgN/A
12:00 AM63 °FPassing clouds.3 mph88%30.09 "HgN/A
11:00 PM
Thu, Feb 11
64 °FPartly cloudy.7 mph88%30.09 "HgN/A
10:00 PM64 °FPassing clouds.6 mph88%30.12 "HgN/A
9:00 PM64 °FPassing clouds.8 mph88%30.09 "HgN/A
7:00 PM68 °FBroken clouds.12 mph88%30.04 "HgN/A
Weather by CustomWeather, © 2016

See weather overviewHow to use our weather pages